TimeMDT,TemperatureF,Dew PointF,Humidity,Sea Level PressureIn,VisibilityMPH,Wind Direction,Wind SpeedMPH,Gust SpeedMPH,PrecipitationIn,Events,Conditions,WindDirDegrees,DateUTC
12:53 AM,78.1,48.9,36,29.82,10.0,SE,15.0,-,N/A,,Clear,130,2013-08-23 06:53:00
1:53 AM,78.1,51.1,39,29.82,10.0,SSE,10.4,-,N/A,,Clear,160,2013-08-23 07:53:00
2:53 AM,75.9,51.1,42,29.81,10.0,South,9.2,-,N/A,,Clear,180,2013-08-23 08:53:00
3:53 AM,71.1,51.1,49,29.82,10.0,North,4.6,-,N/A,,Clear,360,2013-08-23 09:53:00
4:53 AM,70.0,51.1,51,29.83,10.0,NNW,4.6,-,N/A,,Scattered Clouds,340,2013-08-23 10:53:00
5:53 AM,66.9,52.0,59,29.85,10.0,East,6.9,-,N/A,,Clear,80,2013-08-23 11:53:00
6:53 AM,66.0,52.0,60,29.88,10.0,NE,8.1,-,N/A,,Clear,50,2013-08-23 12:53:00
7:53 AM,70.0,53.1,55,29.90,10.0,ENE,9.2,-,N/A,,Clear,60,2013-08-23 13:53:00
8:53 AM,73.9,54.0,50,29.91,10.0,East,6.9,-,N/A,,Clear,80,2013-08-23 14:53:00
9:53 AM,78.1,54.0,43,29.91,10.0,East,10.4,-,N/A,,Clear,90,2013-08-23 15:53:00
10:53 AM,82.0,54.0,38,29.91,10.0,ESE,8.1,-,N/A,,Clear,110,2013-08-23 16:53:00
11:53 AM,84.0,53.1,34,29.91,10.0,ESE,6.9,16.1,N/A,,Clear,120,2013-08-23 17:53:00
12:53 PM,86.0,53.1,32,29.86,10.0,ESE,15.0,20.7,N/A,,Clear,110,2013-08-23 18:53:00
1:53 PM,87.1,53.1,31,29.83,10.0,SE,10.4,18.4,N/A,,Partly Cloudy,140,2013-08-23 19:53:00
2:53 PM,88.0,51.1,28,29.80,10.0,SE,8.1,-,N/A,,Clear,130,2013-08-23 20:53:00
3:53 PM,90.0,52.0,27,29.78,10.0,ESE,9.2,19.6,N/A,,Mostly Cloudy,120,2013-08-23 21:53:00
4:53 PM,89.1,48.9,25,29.76,10.0,SSE,5.8,16.1,N/A,,Clear,150,2013-08-23 22:53:00
5:53 PM,88.0,48.0,25,29.75,10.0,South,11.5,19.6,N/A,,Partly Cloudy,170,2013-08-23 23:53:00
6:53 PM,88.0,48.9,26,29.75,10.0,SSE,9.2,-,N/A,,Mostly Cloudy,150,2013-08-24 00:53:00
7:18 PM,78.8,57.2,47,29.99,10.0,NNE,8.1,-,0.04,Rain-Thunderstorm,Light Thunderstorms and Rain,20,2013-08-24 01:18:00
7:39 PM,80.6,55.4,42,29.99,10.0,Calm,Calm,-,0.04,,Mostly Cloudy,0,2013-08-24 01:39:00
7:53 PM,78.1,62.1,58,29.78,10.0,Variable,3.5,-,0.04,,Scattered Clouds,0,2013-08-24 01:53:00
8:53 PM,79.0,54.0,42,29.80,10.0,SE,17.3,26.5,0.00,,Mostly Cloudy,140,2013-08-24 02:53:00
9:53 PM,72.0,57.9,61,29.85,10.0,East,12.7,20.7,0.03,Rain,Light Rain,100,2013-08-24 03:53:00
10:53 PM,72.0,60.1,66,29.86,10.0,North,4.6,-,0.00,,Overcast,350,2013-08-24 04:53:00
11:53 PM,71.1,59.0,66,29.86,10.0,East,4.6,-,N/A,,Mostly Cloudy,90,2013-08-24 05:53:00